Location: Unspecified
(40.7945°N, 0.0000°E)
Time: 15:45:47
(UTC+00:00)

METEOR M2 - Pass Details

Date: 09 August 2020
Orbit: 819 x 827 km, 98.5° (Epoch: 23 September)

Event Time Altitude Azimuth Distance (km) Brightness Sun altitude
Rises 20:40:07 0° 207° (SSW) 3,348 ? -16.3°
Reaches altitude 10° 20:43:14 10° 226° (SW) 2,419 ? -16.8°
Maximum altitude 20:46:48 18° 268° (W) 1,923 ? -17.3°
Drops below altitude 10° 20:50:23 10° 311° (NW) 2,427 ? -17.8°
Sets 20:53:32 0° 330° (NNW) 3,364 ? -18.3°
